Regional Weather Roundup
Issued by NWS

Home | Current Version | Previous Version | Graphics & Text | Print | Product List | Glossary On
Versions: 1 2 3 4 5 6 7 8 9 10 11 12 13 14 15 16 17 18 19 20 21 22 23 24 25 26 27 28 29 30 31 32 33 34 35 36 37 38 39 40 41 42 43 44 45 46 47 48 49 50
000
ASUS44 KMEG 022310
RWRTN
TENNESSEE HOURLY STATE WEATHER ROUNDUP
NATIONAL WEATHER SERVICE MEMPHIS TN
600 PM CDT THU JUL 02 2015

TNZ002-004-019-021-049-052-054-088>092-030000-
WEST TENNESSEE

CITY           SKY/WX    TMP DP  RH WIND       PRES   REMARKS
MEMPHIS INTL   CLOUDY    86  69  56 SW13G23   29.86F HX  90
NWS MEMPHIS      N/A     85 N/A N/A MISG        N/A
JACKSON        CLOUDY    80  72  76 SW7       29.86S
DYERSBURG        N/A    N/A N/A N/A MISG        N/A
PARIS          PTSUNNY   75  72  88 SW7       29.86R
LEXINGTON      CLOUDY    79  72  78 SW9       29.86S
$$

TNZ008-025-027-028-033-062-065-066-030000-
NORTH MIDDLE TENNESSEE

CITY           SKY/WX    TMP DP  RH WIND       PRES   REMARKS
NASHVILLE      CLOUDY    80  75  84 SW9       29.85S
CLARKSVILLE    PTSUNNY   79  74  84 SW6       29.84S
SMYRNA         CLOUDY    80  74  82 VRB5      29.86F
COOKEVILLE     MOSUNNY   79  73  83 SW12      29.89S
CROSSVILLE     PTSUNNY   74  68  81 VRB3      29.94F
$$

TNZ061-075-076-078-094-096-097-030000-
SOUTH MIDDLE TENNESSEE

CITY           SKY/WX    TMP DP  RH WIND       PRES   REMARKS
FAYETTEVILLE   SUNNY     81  66  61 SW10      29.90F
TULLAHOMA      MOSUNNY   77  70  78 SW7       29.90F
WINCHESTER     PTSUNNY   81  70  69 SW14      29.91S
MCMINNVILLE    SUNNY     77  73  88 S5        29.89F
COLUMBIA       PTSUNNY   81  73  78 SW12      29.86F
SHELBYVILLE    PTSUNNY  N/A N/A N/A MISG        N/A
$$

TNZ017-018-042-046-047-030000-
NORTHEAST TENNESSEE

CITY           SKY/WX    TMP DP  RH WIND       PRES   REMARKS
TRI CITIES     CLOUDY    74  65  73 SW10      29.95R
ELIZABETHTON   MOCLDY    73  64  73 W5        29.96R
$$

TNZ012-013-036-069-073-074-030000-
CENTRAL EAST TENNESSEE

CITY           SKY/WX    TMP DP  RH WIND       PRES   REMARKS
KNOXVILLE      PTSUNNY   78  69  73 SW10      29.92S
OAK RIDGE      MOSUNNY   78  68  71 VRB3      29.93S
GATLINBURG     PTCLDY    81  66  61 W7        29.92S
MORRISTOWN     CLEAR     75  68  78 W6        29.95F
$$

TNZ083-085-099-030000-
SOUTHEAST TENNESSEE

CITY           SKY/WX    TMP DP  RH WIND       PRES   REMARKS
CHATTANOOGA    PTSUNNY   76  70  82 SE5       29.92F
$$

SKY/WX REPORTED AS FAIR MEANS FEW OR NO CLOUDS BELOW
12 THOUSAND FEET.




USA.gov is the U.S. government's official web portal to all federal, state and local government web resources and services.